GW6343 Weather Reports


time (UTC)temp
C
wind
direction
speed
KPH
gust
KPH
rain 1hr
cm
rain 24hr
cm
rain mn
cm
humidity
%
barometer
mb
20260504201511 25 174 6.4 19.3 0.00 0.00 0.00 40 1015.7
20260504200019 26 237 3.2 8.0 0.00 0.00 0.00 40 1015.8
20260504194507 26 131 6.4 20.9 0.00 0.00 0.00 40 1016.0
20260504193006 25 236 1.6 11.3 0.00 0.00 0.00 43 1016.6
20260504191514 26 174 6.4 14.5 0.00 0.00 0.00 41 1016.7
20260504190019 25 144 6.4 19.3 0.00 0.00 0.00 39 1016.6
20260504183005 26 162 3.2 14.5 0.00 0.00 0.00 38 1017.2
20260504181507 25 228 3.2 17.7 0.00 0.00 0.00 39 1017.2
20260504180013 25 129 3.2 12.9 0.00 0.00 0.00 38 1017.3
20260504174520 25 160 4.8 14.5 0.00 0.00 0.00 38 1017.4
20260504171503 24 165 3.2 11.3 0.00 0.00 0.00 42 1017.2
20260504081509 11 239 0.0 1.6 0.00 0.00 0.00 89 1017.6
20260504044529 13 183 0.0 0.0 0.00 0.00 0.00 82 1018.9
20260504043029 13 183 0.0 0.0 0.00 0.00 0.00 82 1019.1
20260504041518 13 179 0.0 0.0 0.00 0.00 0.00 82 1019.1
20260504040025 13 179 0.0 0.0 0.00 0.00 0.00 81 1019.2
20260504034526 14 179 0.0 0.0 0.00 0.00 0.00 80 1019.2
20260504033027 14 179 0.0 0.0 0.00 0.00 0.00 78 1019.1
20260504031518 15 167 0.0 0.0 0.00 0.00 0.00 77 1019.1
20260504030025 15 167 0.0 0.0 0.00 0.00 0.00 76 1019.1
20260504024525 15 167 0.0 0.0 0.00 0.00 0.00 76 1018.9
20260504023025 15 162 0.0 0.0 0.00 0.00 0.00 75 1018.7
20260504021526 16 161 0.0 0.0 0.00 0.00 0.00 74 1018.5
20260504020019 16 161 0.0 0.0 0.00 0.00 0.00 74 1018.3
20260504014533 16 161 0.0 0.0 0.00 0.00 0.00 73 1018.3
20260504013036 17 155 0.0 0.0 0.00 0.00 0.00 70 1018.2
20260504011526 17 150 0.0 0.0 0.00 0.00 0.00 67 1018.1
20260504010019 18 148 0.0 1.6 0.00 0.00 0.00 64 1017.9
20260504004525 19 311 0.0 0.0 0.00 0.00 0.00 60 1017.8
20260504003024 20 313 0.0 0.0 0.00 0.00 0.00 56 1017.6
20260504001508 21 313 0.0 1.6 0.00 0.00 0.00 51 1017.7
20260504000015 22 356 0.0 1.6 0.00 0.00 0.00 48 1017.6
20260503234521 24 359 0.0 4.8 0.00 0.00 0.00 41 1017.8
20260503233006 25 285 0.0 1.6 0.00 0.00 0.00 37 1017.8
20260503231508 25 269 1.6 4.8 0.00 0.00 0.00 34 1017.8
20260503230011 25 271 1.6 6.4 0.00 0.00 0.00 36 1017.9
20260503224517 25 60 3.2 6.4 0.00 0.00 0.00 34 1017.8
20260503223022 25 289 1.6 4.8 0.00 0.00 0.00 35 1018.0
20260503221508 25 49 3.2 9.7 0.00 0.00 0.00 34 1018.2
20260503220011 25 238 1.6 4.8 0.00 0.00 0.00 36 1018.2
20260503214512 25 215 3.2 9.7 0.00 0.00 0.00 36 1018.5
20260503213018 25 333 3.2 11.3 0.00 0.00 0.00 36 1018.6
20260503211524 25 69 1.6 8.0 0.00 0.00 0.00 36 1018.8
20260503210007 24 58 4.8 16.1 0.00 0.00 0.00 35 1019.1
20260503204512 25 31 3.2 9.7 0.00 0.00 0.00 37 1019.2
20260503203037 25 317 3.2 8.0 0.00 0.00 0.00 36 1019.5